,,Stat6,,Stat2,,Stat8,,Stat9,,Stat10,,Wind1,,Wind1,
time,status,PA1M_AVG,status,PR1M_SUM,status,RH1M_AVG,status,SR1M_AVG,status,TA1M_AVG,status,W1dAve1m,status,W1sAve1m,
2007-06-21, 00:00:00,VALID,914.33,VALID,0,VALID,97.9568,VALID,-0.0169808,VALID,19.9799,VALID,139,VALID,1.06955,
2007-06-21, 00:01:00,VALID,914.322,VALID,0,VALID,98.0267,VALID,-0.0169808,VALID,19.9467,VALID,139,VALID,1.09829,
2007-06-21, 00:02:00,VALID,914.305,VALID,0,VALID,98.2251,VALID,-0.0169808,VALID,19.9344,VALID,140,VALID,1.41685,
2007-06-21, 00:03:00,VALID,914.303,VALID,0,VALID,98.3383,VALID,0,VALID,19.9274,VALID,143,VALID,1.24769,
2007-06-21, 00:04:00,VALID,914.287,VALID,0,VALID,98.3281,VALID,-0.0169808,VALID,19.9374,VALID,137,VALID,1.46341,
2007-06-21, 00:05:00,VALID,914.294,VALID,0,VALID,98.2582,VALID,-0.0169808,VALID,19.9571,VALID,142,VALID,1.54107,
2007-06-21, 00:06:00,VALID,914.301,VALID,0,VALID,98.103,VALID,-0.0169808,VALID,19.9928,VALID,140,VALID,1.05822,
2007-06-21, 00:07:00,VALID,914.307,VALID,0,VALID,97.9746,VALID,0,VALID,20.0023,VALID,142,VALID,1.04954,
2007-06-21, 00:08:00,VALID,914.282,VALID,0,VALID,97.9517,VALID,-0.0339617,VALID,20.0028,VALID,142,VALID,1.09535,
2007-06-21, 00:09:00,VALID,914.268,VALID,0,VALID,97.9911,VALID,-0.0169808,VALID,20.0026,VALID,139,VALID,1.28743,
2007-06-21, 00:10:00,VALID,914.257,VALID,0,VALID,97.9797,VALID,-0.0169808,VALID,20.0026,VALID,138,VALID,1.16654,
2007-06-21, 00:11:00,VALID,914.24,VALID,0,VALID,97.9771,VALID,0,VALID,20.0161,VALID,140,VALID,1.09175,
2007-06-21, 00:12:00,VALID,914.245,VALID,0,VALID,97.9364,VALID,-0.0679233,VALID,20.0058,VALID,136,VALID,1.31212,
2007-06-21, 00:13:00,VALID,914.217,VALID,0,VALID,97.8322,VALID,-0.0509425,VALID,20.0188,VALID,131,VALID,1.22228,
2007-06-21, 00:14:00,VALID,914.168,VALID,0,VALID,97.7203,VALID,-0.0169808,VALID,20.0221,VALID,135,VALID,1.46246,
2007-06-21, 00:15:00,VALID,914.162,VALID,0,VALID,97.6046,VALID,0,VALID,20.0318,VALID,138,VALID,1.35991,
2007-06-21, 00:16:00,VALID,914.155,VALID,0,VALID,97.5359,VALID,-0.0169808,VALID,20.0443,VALID,138,VALID,1.14323,
2007-06-21, 00:17:00,VALID,914.174,VALID,0,VALID,97.4558,VALID,0,VALID,20.0478,VALID,136,VALID,1.04403,
2007-06-21, 00:18:00,VALID,914.17,VALID,0,VALID,97.4303,VALID,-0.0169808,VALID,20.0478,VALID,136,VALID,0.911258,
2007-06-21, 00:19:00,VALID,914.172,VALID,0,VALID,97.3922,VALID,0,VALID,20.0443,VALID,132,VALID,1.04355,
2007-06-21, 00:20:00,VALID,914.183,VALID,0,VALID,97.3006,VALID,0,VALID,20.0413,VALID,137,VALID,1.25037,
2007-06-21, 00:21:00,VALID,914.183,VALID,0,VALID,97.2269,VALID,0,VALID,20.0445,VALID,135,VALID,0.938616,
2007-06-21, 00:22:00,VALID,914.161,VALID,0,VALID,97.1595,VALID,0,VALID,20.0245,VALID,134,VALID,1.11979,
2007-06-21, 00:23:00,VALID,914.145,VALID,0,VALID,97.0311,VALID,-0.0339617,VALID,20.035,VALID,135,VALID,1.37198,
2007-06-21, 00:24:00,VALID,914.143,VALID,0,VALID,96.8963,VALID,-0.0339617,VALID,20.0283,VALID,137,VALID,1.2766,
2007-06-21, 00:25:00,VALID,914.13,VALID,0,VALID,96.703,VALID,0,VALID,20.048,VALID,138,VALID,1.22656,
2007-06-21, 00:26:00,VALID,914.085,VALID,0,VALID,96.4385,VALID,0,VALID,20.0707,VALID,136,VALID,1.44455,
2007-06-21, 00:27:00,VALID,914.062,VALID,0,VALID,96.1346,VALID,-0.0169808,VALID,20.0994,VALID,131,VALID,1.42882,
2007-06-21, 00:28:00,VALID,914.04,VALID,0,VALID,95.8968,VALID,0,VALID,20.1254,VALID,132,VALID,1.17378,
2007-06-21, 00:29:00,VALID,913.997,VALID,0,VALID,95.7315,VALID,0,VALID,20.1546,VALID,135,VALID,1.23828,
2007-06-21, 00:30:00,VALID,913.983,VALID,0,VALID,95.6069,VALID,-0.0169808,VALID,20.1611,VALID,133,VALID,1.25915,
2007-06-21, 00:31:00,VALID,913.946,VALID,0,VALID,95.5229,VALID,0,VALID,20.1711,VALID,134,VALID,1.44196,
2007-06-21, 00:32:00,VALID,913.926,VALID,0,VALID,95.4924,VALID,0,VALID,20.1903,VALID,131,VALID,1.43902,
2007-06-21, 00:33:00,VALID,913.924,VALID,0,VALID,95.5051,VALID,-0.0169808,VALID,20.197,VALID,130,VALID,1.32599,
2007-06-21, 00:34:00,VALID,913.915,VALID,0,VALID,95.5713,VALID,0.0169808,VALID,20.1768,VALID,124,VALID,1.3059,
2007-06-21, 00:35:00,VALID,913.881,VALID,0,VALID,95.715,VALID,0,VALID,20.1608,VALID,120,VALID,1.37252,
2007-06-21, 00:36:00,VALID,913.863,VALID,0,VALID,95.9527,VALID,-0.0509425,VALID,20.1351,VALID,125,VALID,1.48326,
2007-06-21, 00:37:00,VALID,913.849,VALID,0,VALID,96.1651,VALID,-0.0339617,VALID,20.1097,VALID,128,VALID,1.43605,
2007-06-21, 00:38:00,VALID,913.828,VALID,0,VALID,96.3762,VALID,0,VALID,20.087,VALID,133,VALID,1.38662,
2007-06-21, 00:39:00,VALID,913.837,VALID,0,VALID,96.5351,VALID,-0.0169808,VALID,20.0637,VALID,138,VALID,1.12081,
2007-06-21, 00:40:00,VALID,913.841,VALID,0,VALID,96.7221,VALID,0,VALID,20.0475,VALID,136,VALID,1.17188,
2007-06-21, 00:41:00,VALID,913.833,VALID,0,VALID,96.9459,VALID,0.0339617,VALID,20.031,VALID,131,VALID,1.38105,
2007-06-21, 00:42:00,VALID,913.813,VALID,0,VALID,97.0692,VALID,0,VALID,20.0208,VALID,133,VALID,1.56577,
2007-06-21, 00:43:00,VALID,913.811,VALID,0,VALID,97.1175,VALID,0.0169808,VALID,20.0278,VALID,133,VALID,1.55246,
2007-06-21, 00:44:00,VALID,913.792,VALID,0,VALID,97.0997,VALID,-0.0169808,VALID,20.028,VALID,125,VALID,1.49503,
2007-06-21, 00:45:00,VALID,913.798,VALID,0,VALID,97.1709,VALID,0.0339617,VALID,20.0148,VALID,121,VALID,1.3002,
2007-06-21, 00:46:00,VALID,913.794,VALID,0,VALID,97.2472,VALID,0,VALID,19.9888,VALID,116,VALID,1.16128,
2007-06-21, 00:47:00,VALID,913.764,VALID,0,VALID,97.3312,VALID,-0.0169808,VALID,19.9696,VALID,116,VALID,0.900534,
2007-06-21, 00:48:00,VALID,913.749,VALID,0,VALID,97.5155,VALID,0,VALID,19.9434,VALID,119,VALID,1.12682,
2007-06-21, 00:49:00,VALID,913.748,VALID,0,VALID,97.7279,VALID,-0.0169808,VALID,19.9274,VALID,112,VALID,0.964558,
2007-06-21, 00:50:00,VALID,913.757,VALID,0,VALID,97.8411,VALID,0.0169808,VALID,19.914,VALID,111,VALID,0.889898,
2007-06-21, 00:51:00,VALID,913.74,VALID,0,VALID,97.9339,VALID,0.0169808,VALID,19.8888,VALID,111,VALID,0.896341,
2007-06-21, 00:52:00,VALID,913.729,VALID,0,VALID,98.0318,VALID,-0.0169808,VALID,19.8531,VALID,114,VALID,1.11806,
2007-06-21, 00:53:00,VALID,913.715,VALID,0,VALID,97.9784,VALID,0,VALID,19.8431,VALID,119,VALID,1.09375,
2007-06-21, 00:54:00,VALID,913.702,VALID,0,VALID,97.9008,VALID,-0.0169808,VALID,19.8333,VALID,119,VALID,0.966844,
2007-06-21, 00:55:00,VALID,913.696,VALID,0,VALID,97.8996,VALID,-0.0169808,VALID,19.8331,VALID,120,VALID,0.914608,
2007-06-21, 00:56:00,VALID,913.671,VALID,0,VALID,97.9555,VALID,-0.0169808,VALID,19.8166,VALID,124,VALID,1.01507,
2007-06-21, 00:57:00,VALID,913.657,VALID,0,VALID,97.9733,VALID,0,VALID,19.8273,VALID,131,VALID,1.02051,
2007-06-21, 00:58:00,VALID,913.653,VALID,0,VALID,97.8894,VALID,-0.0509425,VALID,19.8273,VALID,132,VALID,1.18945,
2007-06-21, 00:59:00,VALID,913.642,VALID,0,VALID,97.6821,VALID,-0.0509425,VALID,19.8403,VALID,126,VALID,1.28052,
2007-06-21, 01:00:00,VALID,913.651,VALID,0,VALID,97.382,VALID,-0.118866,VALID,19.8678,VALID,125,VALID,1.28697,
2007-06-21, 01:01:00,VALID,913.624,VALID,0,VALID,97.1773,VALID,-0.135847,VALID,19.8973,VALID,130,VALID,1.24179,
2007-06-21, 01:02:00,VALID,913.617,VALID,0,VALID,96.9192,VALID,-0.135847,VALID,19.9195,VALID,128,VALID,1.53555,
2007-06-21, 01:03:00,VALID,913.609,VALID,0,VALID,96.5504,VALID,-0.101885,VALID,19.9716,VALID,125,VALID,1.60265,
2007-06-21, 01:04:00,VALID,913.597,VALID,0,VALID,96.1435,VALID,-0.152827,VALID,20.0236,VALID,127,VALID,1.42485,
2007-06-21, 01:05:00,VALID,913.58,VALID,0,VALID,95.8637,VALID,-0.118866,VALID,20.0623,VALID,124,VALID,1.05011,
2007-06-21, 01:06:00,VALID,913.557,VALID,0,VALID,95.8841,VALID,-0.152827,VALID,20.0593,VALID,137,VALID,1.08557,
2007-06-21, 01:07:00,VALID,913.552,VALID,0,VALID,96.1041,VALID,-0.118866,VALID,20.0363,VALID,138,VALID,1.11737,
2007-06-21, 01:08:00,VALID,913.53,VALID,0,VALID,96.3584,VALID,-0.118866,VALID,20.0009,VALID,141,VALID,1.23242,
2007-06-21, 01:09:00,VALID,913.567,VALID,0,VALID,96.544,VALID,-0.20377,VALID,19.9622,VALID,141,VALID,0.926953,
2007-06-21, 01:10:00,VALID,913.554,VALID,0,VALID,96.7666,VALID,-0.135847,VALID,19.9322,VALID,139,VALID,1.0263,
2007-06-21, 01:11:00,VALID,913.53,VALID,0,VALID,96.8683,VALID,-0.135847,VALID,19.9394,VALID,142,VALID,1.09152,
2007-06-21, 01:12:00,VALID,913.504,VALID,0,VALID,96.9446,VALID,-0.169808,VALID,19.923,VALID,140,VALID,1.14309,
2007-06-21, 01:13:00,VALID,913.482,VALID,0,VALID,96.9751,VALID,-0.118866,VALID,19.907,VALID,134,VALID,1.58296,
2007-06-21, 01:14:00,VALID,913.466,VALID,0,VALID,96.9153,VALID,-0.0849042,VALID,19.8928,VALID,130,VALID,1.59132,
2007-06-21, 01:15:00,VALID,913.458,VALID,0,VALID,96.7627,VALID,-0.0509425,VALID,19.912,VALID,132,VALID,1.4838,
2007-06-21, 01:16:00,VALID,913.448,VALID,0,VALID,96.6038,VALID,-0.0509425,VALID,19.9279,VALID,136,VALID,1.26438,
2007-06-21, 01:17:00,VALID,913.454,VALID,0,VALID,96.4283,VALID,-0.0169808,VALID,19.9474,VALID,136,VALID,1.25149,
2007-06-21, 01:18:00,VALID,913.457,VALID,0,VALID,96.2643,VALID,-0.0679233,VALID,19.9574,VALID,137,VALID,1.34889,
2007-06-21, 01:19:00,VALID,913.425,VALID,0,VALID,96.043,VALID,-0.0169808,VALID,19.9796,VALID,135,VALID,1.41082,
2007-06-21, 01:20:00,VALID,913.393,VALID,0,VALID,95.776,VALID,-0.0169808,VALID,20.0186,VALID,131,VALID,1.60447,
2007-06-21, 01:21:00,VALID,913.374,VALID,0,VALID,95.5331,VALID,-0.0509425,VALID,20.0413,VALID,135,VALID,1.52217,
2007-06-21, 01:22:00,VALID,913.373,VALID,0,VALID,95.2686,VALID,-0.0509425,VALID,20.0775,VALID,132,VALID,1.72511,
2007-06-21, 01:23:00,VALID,913.361,VALID,0,VALID,94.9494,VALID,-0.0679233,VALID,20.1129,VALID,126,VALID,1.45531,
2007-06-21, 01:24:00,VALID,913.333,VALID,0,VALID,94.7841,VALID,0,VALID,20.1194,VALID,130,VALID,1.52168,
2007-06-21, 01:25:00,VALID,913.308,VALID,0,VALID,94.8108,VALID,-0.0169808,VALID,20.1159,VALID,127,VALID,1.22476,
2007-06-21, 01:26:00,VALID,913.286,VALID,0,VALID,94.8655,VALID,-0.0509425,VALID,20.087,VALID,126,VALID,1.10342,
2007-06-21, 01:27:00,VALID,913.28,VALID,0,VALID,94.8414,VALID,-0.0339617,VALID,20.0642,VALID,133,VALID,1.21911,
2007-06-21, 01:28:00,VALID,913.256,VALID,0,VALID,94.8299,VALID,-0.0339617,VALID,20.0577,VALID,130,VALID,1.03068,
2007-06-21, 01:29:00,VALID,913.289,VALID,0,VALID,94.718,VALID,-0.0849042,VALID,20.0455,VALID,132,VALID,1.2167,
2007-06-21, 01:30:00,VALID,913.302,VALID,0,VALID,94.6417,VALID,-0.169808,VALID,20.0463,VALID,132,VALID,1.11772,
2007-06-21, 01:31:00,VALID,913.307,VALID,0,VALID,94.5616,VALID,-0.152827,VALID,20.0366,VALID,141,VALID,1.21982,
2007-06-21, 01:32:00,VALID,913.296,VALID,0,VALID,94.6811,VALID,-0.152827,VALID,20.053,VALID,140,VALID,1.31001,
2007-06-21, 01:33:00,VALID,913.295,VALID,0,VALID,94.9037,VALID,-0.152827,VALID,20.0628,VALID,135,VALID,1.26136,
2007-06-21, 01:34:00,VALID,913.291,VALID,0,VALID,95.0257,VALID,-0.186789,VALID,20.0498,VALID,139,VALID,1.20926,
2007-06-21, 01:35:00,VALID,913.29,VALID,0,VALID,95.0664,VALID,-0.169808,VALID,20.0338,VALID,132,VALID,1.11319,
2007-06-21, 01:36:00,VALID,913.288,VALID,0,VALID,95.0219,VALID,-0.169808,VALID,20.0203,VALID,127,VALID,1.27135,
2007-06-21, 01:37:00,VALID,913.269,VALID,0,VALID,95.0257,VALID,-0.135847,VALID,20.0178,VALID,125,VALID,1.248,
2007-06-21, 01:38:00,VALID,913.24,VALID,0,VALID,95.0232,VALID,-0.135847,VALID,19.9944,VALID,124,VALID,1.14935,
2007-06-21, 01:39:00,VALID,913.233,VALID,0,VALID,95.0092,VALID,-0.118866,VALID,19.9814,VALID,123,VALID,1.32467,
2007-06-21, 01:40:00,VALID,913.205,VALID,0,VALID,94.9965,VALID,-0.135847,VALID,19.9849,VALID,128,VALID,1.26962,
2007-06-21, 01:41:00,VALID,913.198,VALID,0,VALID,94.9329,VALID,-0.135847,VALID,19.9914,VALID,129,VALID,1.1915,
2007-06-21, 01:42:00,VALID,913.182,VALID,0,VALID,94.8668,VALID,-0.169808,VALID,20.0073,VALID,130,VALID,1.05185,
2007-06-21, 01:43:00,VALID,913.174,VALID,0,VALID,94.7625,VALID,-0.101885,VALID,20.0106,VALID,135,VALID,1.11566,
2007-06-21, 01:44:00,VALID,913.162,VALID,0,VALID,94.6837,VALID,-0.0679233,VALID,20.0098,VALID,145,VALID,0.971628,
2007-06-21, 01:45:00,VALID,913.156,VALID,0,VALID,94.5476,VALID,-0.0509425,VALID,20.0253,VALID,137,VALID,1.18496,
2007-06-21, 01:46:00,VALID,913.124,VALID,0,VALID,94.3836,VALID,0,VALID,20.0513,VALID,111,VALID,1.00254,
2007-06-21, 01:47:00,VALID,913.113,VALID,0,VALID,94.4001,VALID,-0.0339617,VALID,20.0343,VALID,57,VALID,0.573552,
2007-06-21, 01:48:00,VALID,913.122,VALID,0,VALID,94.5997,VALID,-0.0169808,VALID,19.9764,VALID,70,VALID,1.02219,
2007-06-21, 01:49:00,VALID,913.105,VALID,0,VALID,94.9469,VALID,0,VALID,19.9115,VALID,107,VALID,0.898633,
2007-06-21, 01:50:00,VALID,913.112,VALID,0,VALID,95.1186,VALID,-0.0339617,VALID,19.8793,VALID,113,VALID,0.629972,
2007-06-21, 01:51:00,VALID,913.105,VALID,0,VALID,95.4085,VALID,-0.0339617,VALID,19.8139,VALID,108,VALID,0.755504,
2007-06-21, 01:52:00,VALID,913.093,VALID,0,VALID,95.72,VALID,-0.0169808,VALID,19.7946,VALID,109,VALID,0.986683,
2007-06-21, 01:53:00,VALID,913.109,VALID,0,VALID,95.9159,VALID,-0.0169808,VALID,19.7659,VALID,114,VALID,1.12667,
2007-06-21, 01:54:00,VALID,913.1,VALID,0,VALID,95.9896,VALID,-0.0169808,VALID,19.7719,VALID,117,VALID,1.22929,
2007-06-21, 01:55:00,VALID,913.089,VALID,0,VALID,95.8256,VALID,0,VALID,19.7684,VALID,85,VALID,0.727834,
2007-06-21, 01:56:00,VALID,913.078,VALID,0,VALID,95.9159,VALID,-0.0169808,VALID,19.6811,VALID,84,VALID,0.885547,
2007-06-21, 01:57:00,VALID,913.065,VALID,0,VALID,96.4105,VALID,-0.0339617,VALID,19.6264,VALID,87,VALID,0.737909,
2007-06-21, 01:58:00,VALID,913.067,VALID,0,VALID,96.7755,VALID,-0.0339617,VALID,19.6067,VALID,108,VALID,0.731707,
2007-06-21, 01:59:00,VALID,913.067,VALID,0,VALID,96.7233,VALID,-0.0169808,VALID,19.5538,VALID,82,VALID,0.402876,
2007-06-21, 02:00:00,VALID,913.053,VALID,0,VALID,96.8988,VALID,0.0509425,VALID,19.4557,VALID,78,VALID,0.682292,
2007-06-21, 02:01:00,VALID,913.046,VALID,0,VALID,97.4481,VALID,0.0849042,VALID,19.4133,VALID,84,VALID,0.708079,
2007-06-21, 02:02:00,VALID,913.038,VALID,0,VALID,97.8729,VALID,0.0679233,VALID,19.4235,VALID,93,VALID,0.856286,
2007-06-21, 02:03:00,VALID,913.05,VALID,0,VALID,98.0102,VALID,0.0849042,VALID,19.4522,VALID,96,VALID,0.768102,
2007-06-21, 02:04:00,VALID,913.049,VALID,0,VALID,97.9237,VALID,0.0679233,VALID,19.4687,VALID,99,VALID,0.678544,
2007-06-21, 02:05:00,VALID,913.06,VALID,0,VALID,97.8474,VALID,0.0509425,VALID,19.4819,VALID,100,VALID,0.569754,
2007-06-21, 02:06:00,VALID,913.051,VALID,0,VALID,97.7114,VALID,0.0339617,VALID,19.4622,VALID,100,VALID,0.486421,
2007-06-21, 02:07:00,VALID,913.046,VALID,0,VALID,97.457,VALID,0.0679233,VALID,19.3903,VALID,96,VALID,0.587081,
2007-06-21, 02:08:00,VALID,913.035,VALID,0,VALID,97.6541,VALID,0.0679233,VALID,19.3294,VALID,90,VALID,0.774038,
2007-06-21, 02:09:00,VALID,913.014,VALID,0,VALID,98.0318,VALID,0,VALID,19.294,VALID,99,VALID,0.97017,
2007-06-21, 02:10:00,VALID,913.004,VALID,0,VALID,98.3243,VALID,0.0339617,VALID,19.2646,VALID,117,VALID,1.15997,
2007-06-21, 02:11:00,VALID,912.996,VALID,0,VALID,98.6295,VALID,0.0339617,VALID,19.2678,VALID,125,VALID,1.33092,
2007-06-21, 02:12:00,VALID,912.999,VALID,0,VALID,98.7083,VALID,0.0509425,VALID,19.2935,VALID,130,VALID,1.38281,
2007-06-21, 02:13:00,VALID,912.998,VALID,0,VALID,98.6231,VALID,0.0169808,VALID,19.3324,VALID,134,VALID,1.42204,
2007-06-21, 02:14:00,VALID,912.994,VALID,0,VALID,98.4489,VALID,0,VALID,19.3823,VALID,136,VALID,1.09757,
2007-06-21, 02:15:00,VALID,912.971,VALID,0,VALID,98.2073,VALID,-0.101885,VALID,19.4058,VALID,135,VALID,0.965661,
2007-06-21, 02:16:00,VALID,912.953,VALID,0,VALID,98.0089,VALID,-0.0339617,VALID,19.4083,VALID,133,VALID,1.25476,
2007-06-21, 02:17:00,VALID,912.943,VALID,0,VALID,97.972,VALID,-0.0679233,VALID,19.4115,VALID,129,VALID,1.50254,
2007-06-21, 02:18:00,VALID,912.931,VALID,0,VALID,97.8843,VALID,-0.0679233,VALID,19.4447,VALID,128,VALID,1.77887,
2007-06-21, 02:19:00,VALID,912.903,VALID,0,VALID,97.7241,VALID,-0.0509425,VALID,19.4639,VALID,126,VALID,1.48549,
2007-06-21, 02:20:00,VALID,912.874,VALID,0,VALID,97.5105,VALID,-0.0679233,VALID,19.4804,VALID,119,VALID,1.43586,
2007-06-21, 02:21:00,VALID,912.86,VALID,0,VALID,97.466,VALID,-0.0339617,VALID,19.457,VALID,126,VALID,1.44497,
2007-06-21, 02:22:00,VALID,912.85,VALID,0,VALID,97.588,VALID,-0.0339617,VALID,19.4445,VALID,128,VALID,1.56841,
2007-06-21, 02:23:00,VALID,912.851,VALID,0,VALID,97.6465,VALID,-0.0339617,VALID,19.4407,VALID,130,VALID,1.50709,
2007-06-21, 02:24:00,VALID,912.83,VALID,0,VALID,97.5944,VALID,-0.0169808,VALID,19.4475,VALID,122,VALID,1.44607,
2007-06-21, 02:25:00,VALID,912.822,VALID,0,VALID,97.6287,VALID,-0.0339617,VALID,19.4607,VALID,131,VALID,1.51086,
2007-06-21, 02:26:00,VALID,912.811,VALID,0,VALID,97.555,VALID,-0.0169808,VALID,19.466,VALID,137,VALID,1.58984,
2007-06-21, 02:27:00,VALID,912.804,VALID,0,VALID,97.5155,VALID,-0.0679233,VALID,19.4792,VALID,136,VALID,1.67787,
2007-06-21, 02:28:00,VALID,912.801,VALID,0,VALID,97.4431,VALID,-0.0339617,VALID,19.4954,VALID,135,VALID,1.62482,
2007-06-21, 02:29:00,VALID,912.798,VALID,0,VALID,97.3426,VALID,0.0169808,VALID,19.5114,VALID,137,VALID,1.76242,
2007-06-21, 02:30:00,VALID,912.757,VALID,0,VALID,97.2625,VALID,0.0679233,VALID,19.5368,VALID,134,VALID,1.72656,
2007-06-21, 02:31:00,VALID,912.74,VALID,0,VALID,97.204,VALID,0.0509425,VALID,19.5301,VALID,133,VALID,1.73474,
2007-06-21, 02:32:00,VALID,912.739,VALID,0,VALID,97.1417,VALID,0.0679233,VALID,19.5368,VALID,136,VALID,1.69495,
2007-06-21, 02:33:00,VALID,912.717,VALID,0,VALID,97.1646,VALID,0.0509425,VALID,19.5241,VALID,135,VALID,1.3388,
2007-06-21, 02:34:00,VALID,912.731,VALID,0,VALID,97.19,VALID,0.0339617,VALID,19.4981,VALID,139,VALID,1.16788,
2007-06-21, 02:35:00,VALID,912.721,VALID,0,VALID,97.2828,VALID,0.0509425,VALID,19.4655,VALID,140,VALID,1.39735,
2007-06-21, 02:36:00,VALID,912.708,VALID,0,VALID,97.3858,VALID,0.0339617,VALID,19.4432,VALID,144,VALID,1.40383,
2007-06-21, 02:37:00,VALID,912.708,VALID,0,VALID,97.56,VALID,0.0339617,VALID,19.4268,VALID,148,VALID,1.78184,
2007-06-21, 02:38:00,VALID,912.699,VALID,0,VALID,97.6096,VALID,0.0339617,VALID,19.4525,VALID,140,VALID,1.89462,
2007-06-21, 02:39:00,VALID,912.693,VALID,0,VALID,97.4392,VALID,0.0849042,VALID,19.5044,VALID,132,VALID,1.73793,
2007-06-21, 02:40:00,VALID,912.695,VALID,0,VALID,97.1417,VALID,0.0509425,VALID,19.5371,VALID,132,VALID,1.39026,
2007-06-21, 02:41:00,VALID,912.676,VALID,0,VALID,97.0743,VALID,0.0509425,VALID,19.5436,VALID,135,VALID,1.76544,
2007-06-21, 02:42:00,VALID,912.645,VALID,0,VALID,97.0298,VALID,0.0679233,VALID,19.5496,VALID,141,VALID,1.83906,
2007-06-21, 02:43:00,VALID,912.64,VALID,0,VALID,96.9115,VALID,0.0679233,VALID,19.5633,VALID,135,VALID,1.47085,
2007-06-21, 02:44:00,VALID,912.628,VALID,0,VALID,96.9039,VALID,-0.0679233,VALID,19.5353,VALID,132,VALID,1.49851,
2007-06-21, 02:45:00,VALID,912.611,VALID,0,VALID,96.9777,VALID,-0.135847,VALID,19.5103,VALID,129,VALID,1.52157,
2007-06-21, 02:46:00,VALID,912.586,VALID,0,VALID,97.1277,VALID,-0.169808,VALID,19.4914,VALID,134,VALID,1.60658,
2007-06-21, 02:47:00,VALID,912.592,VALID,0,VALID,97.218,VALID,-0.135847,VALID,19.4844,VALID,133,VALID,1.6408,
2007-06-21, 02:48:00,VALID,912.568,VALID,0,VALID,97.1951,VALID,-0.152827,VALID,19.4779,VALID,131,VALID,1.68661,
2007-06-21, 02:49:00,VALID,912.54,VALID,0,VALID,97.2396,VALID,-0.186789,VALID,19.4649,VALID,131,VALID,1.80365,
2007-06-21, 02:50:00,VALID,912.518,VALID,0,VALID,97.1773,VALID,-0.169808,VALID,19.4584,VALID,138,VALID,1.49655,
2007-06-21, 02:51:00,VALID,912.512,VALID,0,VALID,97.2231,VALID,-0.20377,VALID,19.4397,VALID,137,VALID,1.48698,
2007-06-21, 02:52:00,VALID,912.503,VALID,0,VALID,97.218,VALID,-0.152827,VALID,19.4135,VALID,133,VALID,1.42805,
2007-06-21, 02:53:00,VALID,912.48,VALID,0,VALID,97.2472,VALID,-0.152827,VALID,19.394,VALID,132,VALID,1.23775,
2007-06-21, 02:54:00,VALID,912.485,VALID,0,VALID,97.2841,VALID,-0.135847,VALID,19.3773,VALID,127,VALID,1.26391,
2007-06-21, 02:55:00,VALID,912.473,VALID,0,VALID,97.3057,VALID,-0.118866,VALID,19.3643,VALID,128,VALID,1.42808,
2007-06-21, 02:56:00,VALID,912.456,VALID,0,VALID,97.2599,VALID,-0.0169808,VALID,19.3466,VALID,130,VALID,1.53496,
2007-06-21, 02:57:00,VALID,912.427,VALID,0,VALID,97.2472,VALID,-0.0169808,VALID,19.3239,VALID,127,VALID,1.53525,
2007-06-21, 02:58:00,VALID,912.411,VALID,0,VALID,97.3477,VALID,-0.0509425,VALID,19.3045,VALID,124,VALID,1.76339,
2007-06-21, 02:59:00,VALID,912.399,VALID,0,VALID,97.3146,VALID,-0.0509425,VALID,19.2915,VALID,123,VALID,1.52325,
2007-06-21, 03:00:00,VALID,912.391,VALID,0,VALID,97.3871,VALID,0,VALID,19.262,VALID,125,VALID,1.39306,
2007-06-21, 03:01:00,VALID,912.398,VALID,0,VALID,97.4837,VALID,-0.0339617,VALID,19.2488,VALID,137,VALID,1.25436,
2007-06-21, 03:02:00,VALID,912.411,VALID,0,VALID,97.4939,VALID,-0.0509425,VALID,19.2326,VALID,149,VALID,1.15402,
2007-06-21, 03:03:00,VALID,912.393,VALID,0,VALID,97.5931,VALID,-0.0339617,VALID,19.2328,VALID,133,VALID,1.13654,
2007-06-21, 03:04:00,VALID,912.389,VALID,0,VALID,97.6808,VALID,-0.0679233,VALID,19.2565,VALID,130,VALID,1.32012,
2007-06-21, 03:05:00,VALID,912.391,VALID,0,VALID,97.6033,VALID,-0.0339617,VALID,19.2586,VALID,123,VALID,1.36192,
2007-06-21, 03:06:00,VALID,912.4,VALID,0,VALID,97.5855,VALID,-0.0679233,VALID,19.256,VALID,117,VALID,1.31117,
2007-06-21, 03:07:00,VALID,912.397,VALID,0,VALID,97.602,VALID,0,VALID,19.2201,VALID,113,VALID,1.35029,
2007-06-21, 03:08:00,VALID,912.381,VALID,0,VALID,97.6541,VALID,-0.0169808,VALID,19.1912,VALID,103,VALID,1.17076,
2007-06-21, 03:09:00,VALID,912.374,VALID,0,VALID,97.8818,VALID,-0.0509425,VALID,19.136,VALID,107,VALID,1.2619,
2007-06-21, 03:10:00,VALID,912.357,VALID,0,VALID,98.2009,VALID,0,VALID,19.1328,VALID,117,VALID,1.51029,
2007-06-21, 03:11:00,VALID,912.356,VALID,0,VALID,98.2505,VALID,-0.0169808,VALID,19.1328,VALID,128,VALID,1.4636,
2007-06-21, 03:12:00,VALID,912.39,VALID,0,VALID,98.2251,VALID,-0.0169808,VALID,19.1198,VALID,136,VALID,1.29528,
2007-06-21, 03:13:00,VALID,912.41,VALID,0,VALID,98.1946,VALID,-0.0339617,VALID,19.1195,VALID,139,VALID,0.630809,
2007-06-21, 03:14:00,VALID,912.414,VALID,0,VALID,98.1272,VALID,-0.0169808,VALID,19.1063,VALID,149,VALID,0.661701,
2007-06-21, 03:15:00,VALID,912.411,VALID,0,VALID,98.2048,VALID,-0.0509425,VALID,19.0933,VALID,144,VALID,1.15171,
2007-06-21, 03:16:00,VALID,912.397,VALID,0,VALID,98.2721,VALID,-0.0849042,VALID,19.1131,VALID,136,VALID,1.44687,
2007-06-21, 03:17:00,VALID,912.378,VALID,0,VALID,98.1056,VALID,0,VALID,19.1355,VALID,136,VALID,1.72563,
2007-06-21, 03:18:00,VALID,912.352,VALID,0,VALID,97.8665,VALID,-0.0339617,VALID,19.168,VALID,130,VALID,1.83926,
2007-06-21, 03:19:00,VALID,912.328,VALID,0,VALID,97.6122,VALID,0,VALID,19.1902,VALID,129,VALID,1.85259,
2007-06-21, 03:20:00,VALID,912.333,VALID,0,VALID,97.466,VALID,-0.0169808,VALID,19.2036,VALID,133,VALID,1.5348,
2007-06-21, 03:21:00,VALID,912.349,VALID,0,VALID,97.3718,VALID,-0.0339617,VALID,19.2069,VALID,137,VALID,1.29743,
2007-06-21, 03:22:00,VALID,912.353,VALID,0,VALID,97.2727,VALID,0,VALID,19.2171,VALID,145,VALID,0.77691,
2007-06-21, 03:23:00,VALID,912.372,VALID,0,VALID,97.2803,VALID,-0.0339617,VALID,19.1979,VALID,152,VALID,0.915923,
2007-06-21, 03:24:00,VALID,912.389,VALID,0,VALID,97.3922,VALID,-0.0169808,VALID,19.1872,VALID,145,VALID,0.843555,
2007-06-21, 03:25:00,VALID,912.394,VALID,0,VALID,97.3795,VALID,-0.0169808,VALID,19.1939,VALID,124,VALID,0.827553,
2007-06-21, 03:26:00,VALID,912.412,VALID,0,VALID,97.2638,VALID,-0.0169808,VALID,19.1842,VALID,120,VALID,0.692116,
2007-06-21, 03:27:00,VALID,912.38,VALID,0,VALID,96.9904,VALID,-0.0169808,VALID,19.1515,VALID,91,VALID,0.706076,
2007-06-21, 03:28:00,VALID,912.375,VALID,0,VALID,97.0819,VALID,-0.0339617,VALID,19.0866,VALID,81,VALID,1.02363,
2007-06-21, 03:29:00,VALID,912.357,VALID,0,VALID,97.2981,VALID,-0.0169808,VALID,19.0614,VALID,81,VALID,1.15532,
2007-06-21, 03:30:00,VALID,912.341,VALID,0,VALID,97.3642,VALID,-0.0679233,VALID,19.0192,VALID,79,VALID,1.00462,
2007-06-21, 03:31:00,VALID,912.34,VALID,0,VALID,97.6745,VALID,-0.0339617,VALID,18.9766,VALID,95,VALID,0.979539,
2007-06-21, 03:32:00,VALID,912.345,VALID,0,VALID,98.0471,VALID,-0.0339617,VALID,19.0157,VALID,104,VALID,1.10537,